{"data":{"norad_id":55414,"intl_designator":"2023-014Z","name":"STARLINK-5620","alt_names":[],"object_type":"PAYLOAD","status":"ACTIVE","operator":null,"country":"US","launch_date":"2023-01-31","launch_site_code":"AFWTR","launch_vehicle":null,"mission":null,"orbit_class":"UNKNOWN","rcs_meters":null,"size_class":null,"mass_kg":null,"dimensions":null,"purposes":["comms"],"wikipedia_slug":null,"has_3d_model":false,"image_url":null,"decayed_at":null,"tle_current":{"epoch":"2026-05-24T17:22:32.837088Z","epoch_age_seconds":109621,"freshness":"FRESH","line1":"1 55414U 23014Z   26144.72399117  .00001340  00000+0  12006-3 0  9994","line2":"2 55414  69.9992 252.6510 0003628 270.0089  90.0655 14.98339663182953","mean_motion":14.98339663,"eccentricity":0.0003628,"inclination_deg":69.9992,"raan_deg":252.651,"arg_perigee_deg":270.0089,"mean_anomaly_deg":90.0655,"bstar":0.00012006,"rev_number":18295,"period_min":96.106379318346,"perigee_km":569.50448993492,"apogee_km":574.54752821431,"semimajor_km":6950.1630090746,"source":"CELESTRAK","updated_at":"2026-05-25T13:38:17.797232Z"}}}